Dewpoint
59 59 57 56 54 52 50 49 46 42 39 37 36 34 33 32 32 31 31 30 28 27 26 24 23 23 22 22 21 20 20 20 19 19 22 21 21 18 13 14 11 9 7
59 58 56 55 53 51 50 48 44 41 39 37 35 34 32 32 32 30 30 29 28 27 25 24 23 21 21 21 20 18 18 19 19 17 18 19 17 16 14 12 10 5 4
55 55 53 52 51 51 50 45 42 40 38 35 33 32 32 31 31 30 30 30 28 27 26 24 23 22 21 20 19 19 19 16 18 18 17 19 19 16 13 12 11 11 6
51 52 51 51 50 49 45 43 40 38 36 35 34 33 31 31 31 30 30 30 28 26 27 25 24 23 21 20 19 19 18 18 17 16 16 16 18 18 15 15 14 15 12
48 48 48 47 46 45 42 39 37 37 36 35 33 32 31 30 30 30 29 28 28 26 26 25 24 24 25 23 19 20 19 18 18 17 17 17 17 16 14 16 14 14 13
47 47 46 44 43 41 39 37 36 35 35 35 32 31 30 28 33 34 30 27 27 26 25 25 24 26 26 28 28 25 22 19 18 19 18 17 16 16 17 14 13 10 9
44 43 42 40 38 37 37 35 34 34 33 32 32 31 30 29 35 35 32 27 26 26 25 25 24 22 25 24 30 31 28 27 23 18 17 17 17 17 16 12 13 11 11
42 42 39 39 38 36 35 35 34 33 32 31 30 30 30 29 35 35 32 27 26 26 25 25 24 23 22 22 21 21 23 24 25 24 20 17 16 14 15 14 14 12 11
39 39 38 37 36 35 34 34 32 31 30 30 30 30 29 28 35 36 33 26 25 25 25 25 24 23 24 27 22 22 22 22 24 27 26 25 23 22 17 14 6 4 3
38 38 37 36 36 35 34 32 31 31 31 30 29 30 29 29 34 35 33 28 27 26 25 24 26 24 26 28 26 23 20 20 19 16 17 22 22 20 21 14 12 4 3
34 34 35 35 35 35 33 30 31 30 30 30 29 29 29 29 29 35 36 28 28 28 27 26 25 28 29 29 29 24 23 20 20 16 13 13 13 14 15 16 14 11 5
33 34 34 34 33 33 33 31 30 31 30 29 28 28 28 28 29 35 36 33 30 28 28 27 26 29 29 30 30 29 29 27 14 11 8 12 13 14 14 15 15 14 12
32 33 33 33 32 32 33 31 30 31 30 29 28 28 27 27 27 31 35 36 34 30 28 28 29 30 31 30 30 30 29 27 23 21 20 21 20 20 16 14 15 16 15
32 33 33 33 32 32 32 32 31 31 30 29 29 28 27 26 27 27 29 30 32 31 31 30 31 31 31 30 28 28 27 27 27 24 24 23 20 12 15 15 14 13 11
26 28 31 32 32 31 30 31 31 29 32 31 31 29 27 27 28 28 28 26 25 26 23 22 23 27 27 27 26 26 26 26 26 26 23 17 17 12 14 13 12 8 8
25 25 26 30 30 30 30 30 33 32 32 32 31 30 29 31 32 32 31 30 30 30 26 26 26 26 26 26 26 26 25 25 22 22 23 20 20 13 13 8 11 9 8
25 27 28 28 29 29 29 29 28 31 32 33 33 33 32 31 31 30 30 30 30 28 24 25 25 22 24 25 25 24 15 14 14 18 21 20 20 18 12 9 8 9 8
24 26 28 29 29 29 28 28 28 27 25 25 30 31 31 31 30 30 30 29 28 28 27 26 26 25 23 22 21 18 14 16 21 18 18 17 17 16 13 12 10 11 9
23 24 25 26 27 28 27 26 25 24 23 23 24 25 27 29 29 29 29 27 26 24 22 18 20 20 19 13 7 7 10 9 10 12 10 11 14 12 15 14 14 12 11
22 23 24 25 25 25 25 24 23 22 21 21 21 22 25 26 22 20 21 21 20 18 16 12 13 9 5 1 -4 -5 -3 -2 -0 0 3 5 6 12 14 14 12 12 12
22 22 22 22 22 23 23 22 22 21 20 20 20 23 25 21 19 16 14 13 13 10 1 -2 -2 -5 -7 -8 -8 -8 -9 -7 -6 -4 -3 -1 2 8 6 10 10 11 12
21 20 20 20 20 20 19 20 20 20 19 17 16 19 20 13 11 7 4 1 -2 -6 -10 -10 -10 -10 -10 -9 -9 -10 -10 -9 -10 -8 -6 -5 -4 -1 4 7 8 8 9
18 18 18 18 18 17 17 17 16 15 13 12 10 8 8 5 3 0 -4 -10 -10 -10 -13 -13 -12 -12 -14 -15 -15 -12 -11 -9 -6 -3 -2 -4 -4 -2 1 5 5 5 6
18 17 17 16 15 15 14 12 11 11 9 8 7 6 4 2 -2 -5 -9 -11 -11 -14 -15 -15 -14 -14 -14 -15 -15 -15 -14 -9 -11 -6 -8 -7 0 1 3 4 4 5 5
16 16 15 14 14 12 11 10 9 8 7 6 4 3 1 -0 -2 -4 -7 -10 -13 -13 -12 -13 -13 -13 -13 -11 -9 -8 -9 -2 -5 -4 -8 -2 1 0 2 4 4 4 4
13 13 13 12 11 10 8 7 6 5 4 3 2 1 -0 -1 -6 -9 -11 -10 -11 -12 -13 -13 -13 -10 -9 -7 -6 -1 1 8 8 8 5 1 3 5 5 4 3 4 4
Lifted_Index
-1 -1 -1 -1 -1 -1 -1 -0 0 0 0 -0 -1 -0 1 3 5 7 9 12 13 13 14 14 13 13 12 12 12 12 12 12 12 12 12 12 12 11 11 11 12 12 13
-1 -1 -1 -1 -1 -1 -1 -1 0 1 1 0 -0 -0 1 3 5 7 9 12 13 13 14 13 13 13 12 12 12 12 12 12 12 12 12 12 12 11 11 11 11 12 13
-1 -1 -1 -2 -2 -1 -1 -1 0 1 1 1 0 0 2 3 5 7 10 12 13 13 13 13 13 12 12 12 12 12 12 12 13 13 12 12 12 12 11 11 11 11 12
-1 -1 -1 -2 -2 -2 -1 -0 0 1 1 0 -0 1 2 4 5 8 10 12 12 13 13 13 13 13 12 12 12 12 12 13 13 13 12 12 12 11 11 10 10 11 11
0 -0 -0 -1 -1 -1 -0 1 2 2 1 -0 0 1 3 4 6 9 11 11 12 12 12 12 12 13 13 13 13 13 13 13 13 12 12 11 11 11 10 10 10 10 10
3 2 2 2 1 1 2 3 3 2 0 -0 1 2 4 5 7 9 11 11 11 11 11 12 12 12 13 13 13 13 13 13 13 12 11 11 11 11 10 10 10 10 10
5 5 4 4 4 3 3 4 3 2 1 1 2 3 5 6 7 10 11 11 11 10 11 11 11 11 12 12 12 12 12 13 13 12 11 11 11 11 11 11 11 10 10
6 6 5 5 4 4 3 3 3 2 2 3 4 5 5 6 8 10 11 11 10 10 10 10 10 10 11 10 10 10 11 12 13 13 12 11 12 12 12 12 11 11 11
7 6 5 5 4 3 3 2 3 3 4 5 5 6 6 6 8 10 11 10 9 9 9 9 9 9 10 10 9 9 9 11 12 12 12 12 13 13 13 13 12 11 11
8 8 6 5 4 4 4 4 4 5 6 6 6 6 6 6 7 9 10 10 9 8 8 8 8 9 9 9 9 9 9 10 11 11 11 12 13 14 14 14 13 12 11
9 9 8 7 6 5 5 5 6 7 7 7 7 6 6 6 7 9 10 9 8 8 7 7 7 8 8 8 9 9 10 10 10 10 10 11 12 13 14 15 15 14 14
9 9 9 8 7 7 7 7 7 7 8 7 6 6 5 6 7 9 10 9 8 7 7 7 7 8 8 9 9 10 11 11 10 10 10 10 11 12 14 16 17 17 17
9 9 9 8 8 8 8 8 8 8 7 6 6 5 5 5 7 9 9 9 8 7 7 7 8 9 9 10 10 11 11 11 11 10 10 10 11 13 15 16 17 17 17
9 8 8 8 8 8 8 8 8 7 7 6 6 6 5 5 6 8 9 9 8 7 8 8 9 10 10 10 11 11 12 12 12 11 11 11 12 14 15 16 16 16 16
9 9 8 8 8 7 8 8 8 7 7 7 7 6 6 6 7 9 9 8 8 8 9 9 10 10 10 10 11 11 12 12 12 12 12 12 13 14 14 15 16 15 14
9 9 9 8 8 7 7 7 7 7 8 8 8 7 7 7 8 9 9 9 9 9 10 10 10 10 10 11 11 11 12 12 13 13 13 13 13 14 14 14 15 14 14
8 8 8 8 7 7 6 6 6 7 7 8 7 7 7 8 9 10 10 10 10 10 10 10 10 11 12 12 12 12 13 14 15 14 14 14 14 14 14 14 14 14 14
8 8 7 7 7 6 6 6 6 6 6 6 7 8 9 9 10 10 10 10 11 11 11 12 12 12 13 13 13 14 14 15 15 15 14 14 14 15 14 14 14 14 14
8 8 8 7 7 7 7 7 7 7 7 7 8 9 10 11 11 11 11 12 12 12 12 13 13 13 13 14 14 15 15 15 15 14 14 14 15 15 14 14 14 14 14
9 9 9 9 8 8 8 7 8 8 8 9 10 11 12 12 12 12 12 13 13 13 13 14 14 14 15 15 16 16 16 15 15 14 14 15 15 15 15 15 15 15 15
10 11 11 10 10 9 9 9 10 10 10 11 12 12 13 12 12 13 13 14 14 14 15 15 15 15 16 16 16 16 16 15 15 15 15 15 15 15 15 15 15 15 15
11 11 11 11 12 12 11 11 12 12 12 12 12 13 13 13 13 13 14 15 15 16 16 16 16 16 17 17 17 17 16 15 15 15 15 15 15 15 15 15 16 16 16
11 11 11 11 12 12 12 12 12 12 12 13 13 13 13 13 14 15 15 16 17 17 17 17 17 17 18 18 18 17 16 16 16 16 16 15 15 16 16 16 16 16 16
11 11 10 10 10 10 10 11 11 12 13 13 13 13 14 14 15 16 16 17 17 18 18 18 18 18 18 18 18 18 17 17 17 17 17 16 16 17 17 17 17 17 17
9 9 9 9 8 9 9 11 11 12 13 14 14 15 15 16 16 17 18 18 18 18 18 19 19 19 18 18 18 18 18 18 18 18 18 18 18 18 18 18 18 18 18
9 8 8 8 8 9 10 11 13 13 14 14 15 16 16 16 17 18 18 18 19 19 19 19 19 19 18 18 18 18 18 18 18 19 19 19 19 19 19 19 19 19 19